User: anonymous   Login
Location: Unspecified
(0.0000°N, 0.0000°E)
Time: 10:10:07
(UTC+00:00)
Language:

CUTE-I - Orbit

View from above orbital plane
View from above orbital plane
View from above satellite
View from above satellite

Ground track
Ground track

The orbit data is extracted from the following two-line orbital elements,

1 27844U 03031E   21168.96875654  .00000059  00000-0  46111-4 0  9991
2 27844  98.6792 177.1738 0011130  79.0706 281.1724 14.22314761932052
Epoch (UTC): 17 June 2021 23:15:00
Eccentricity: 0.0011130
inclination: 98.6792°
perigee height: 809 km
apogee height: 825 km
right ascension of ascending node: 177.1738°
argument of perigee: 79.0706°
revolutions per day: 14.22314761
mean anomaly at epoch: 281.1724°
orbit number at epoch: 93205

The dashed part of the orbit path shows where the satellite is in the earth's shadow,  

DLR